Date String (YYYY-MM-DD hh:mm:ss) UTC,Instrument flags,absolute air pressure of the measurement (hPa),sample flow rate (lpm),inlet stack bypass flow (lpm),air temperature of the measurement (°C),ambient temperature measured by the external sensor (°C),aerosol sample conditioner tube jacket temperature (°C),OPC LED temperature (°C),internal box temperature (°C),relative humidity of the measurement (%),span deviation,mass concentration of particles derived from Lorenz-Mie calculation of OPC scattering (μg/m³),mass concentration of particles derived from Lorenz-Mie calculation of OPC scattering (μg/m³),mass concentration of particles derived from Lorenz-Mie calculation of OPC scattering (μg/m³)
DateTimeUTC,F1_M11,P_M11,Q1_M11,Q2_M11,T1_M11,T2_M11,T3_M11,T4_M11,T5_M11,U1_M11,ZSPAN_M11,X2_M11,X0_M11,X1_M11
2023-11-13 10:00:00,SystemResetWarning,0836.7,5.00,000.00,023.9,022.9,000.0,032.3,025.3,9.5,0000.0,0004.15,0011.40,0003.47
2023-11-13 10:01:00,SystemResetWarning,0836.6,5.00,000.00,023.9,022.9,000.0,032.3,025.3,9.5,0000.0,0004.10,0011.22,0003.45
2023-11-13 10:02:00,SystemResetWarning,0836.6,4.99,000.00,023.9,022.9,000.0,032.3,025.3,9.5,0000.0,0004.09,0011.23,0003.43
2023-11-13 10:03:00,SystemResetWarning,0836.6,5.00,000.00,023.8,022.9,000.0,032.3,025.3,9.5,0000.0,0004.10,0010.76,0003.41
2023-11-13 10:04:00,SystemResetWarning,0836.6,5.01,000.00,023.8,022.9,000.0,032.3,025.3,9.5,0000.0,0004.11,0011.66,0003.38
2023-11-13 10:05:00,SystemResetWarning,0836.6,5.00,000.00,023.8,022.9,000.0,032.3,025.3,9.4,0000.0,0004.05,0011.81,0003.33
2023-11-13 10:06:00,SystemResetWarning,0836.6,5.00,000.00,023.8,022.8,000.0,032.3,025.3,9.4,0000.0,0004.03,0011.76,0003.29
2023-11-13 10:07:00,SystemResetWarning,0836.6,5.01,000.00,023.8,022.9,000.0,032.3,025.3,9.4,0000.0,0004.04,0011.74,0003.26
2023-11-13 10:08:00,SystemResetWarning,0836.6,5.00,000.00,023.8,022.9,000.0,032.3,025.3,9.4,0000.0,0003.99,0010.47,0003.22
2023-11-13 10:09:00,SystemResetWarning,0836.6,5.00,000.00,023.8,022.9,000.0,032.2,025.3,9.4,0000.0,0003.92,0010.34,0003.16
2023-11-13 10:10:00,SystemResetWarning,0836.6,5.00,000.00,023.8,022.8,000.0,032.2,025.3,9.4,0000.0,0003.88,0010.09,0003.11
2023-11-13 10:11:00,SystemResetWarning,0836.7,4.99,000.00,023.8,022.8,000.0,032.2,025.3,9.4,0000.0,0003.86,0010.07,0003.05
2023-11-13 10:12:00,SystemResetWarning,0836.6,4.99,000.00,023.8,022.8,000.0,032.2,025.3,9.4,0000.0,0003.85,0009.77,0003.01
2023-11-13 10:13:00,SystemResetWarning,0836.5,5.00,000.00,023.8,022.8,000.0,032.2,025.3,9.4,0000.0,0003.82,0009.36,0003.00
2023-11-13 10:14:00,SystemResetWarning,0836.5,5.00,000.00,023.8,022.8,000.0,032.2,025.2,9.4,0000.0,0003.77,0009.46,0002.97
2023-11-13 10:15:00,SystemResetWarning,0836.5,5.01,000.00,023.8,022.8,000.0,032.2,025.3,9.4,0000.0,0003.70,0008.15,0002.94
2023-11-13 10:16:00,SystemResetWarning,0836.5,5.01,000.00,023.8,022.8,000.0,032.2,025.3,9.4,0000.0,0003.67,0007.76,0002.91
2023-11-13 10:17:00,SystemResetWarning,0836.5,5.00,000.00,023.8,022.8,000.0,032.2,025.2,9.4,0000.0,0003.65,0007.90,0002.89
2023-11-13 10:18:00,SystemResetWarning,0836.4,5.00,000.00,023.8,022.7,000.0,032.2,025.3,9.4,0000.0,0003.63,0008.10,0002.88
2023-11-13 10:19:00,SystemResetWarning,0836.4,5.00,000.00,023.8,022.7,000.0,032.2,025.2,9.4,0000.0,0003.61,0009.12,0002.86
2023-11-13 10:20:00,SystemResetWarning,0836.4,4.99,000.00,023.8,022.7,000.0,032.2,025.2,9.3,0000.0,0003.58,0009.30,0002.84
2023-11-13 10:21:00,SystemResetWarning,0836.4,4.99,000.00,023.8,022.7,000.0,032.2,025.1,9.2,0000.0,0003.53,0009.19,0002.83
2023-11-13 10:22:00,SystemResetWarning,0836.4,4.99,000.00,023.7,022.7,000.0,032.2,025.1,9.3,0000.0,0003.52,0009.18,0002.83
2023-11-13 10:23:00,SystemResetWarning,0836.4,5.00,000.00,023.7,022.6,000.0,032.2,025.1,9.2,0000.0,0003.53,0009.72,0002.82
2023-11-13 10:24:00,SystemResetWarning,0836.4,5.00,000.00,023.7,022.6,000.0,032.1,025.1,9.2,0000.0,0003.52,0009.78,0002.80
2023-11-13 10:25:00,SystemResetWarning,0836.3,5.00,000.00,023.7,022.6,000.0,032.1,025.1,9.2,0000.0,0003.52,0009.58,0002.80
2023-11-13 10:26:00,SystemResetWarning,0836.3,5.00,000.00,023.7,022.6,000.0,032.1,025.1,9.2,0000.0,0003.52,0009.71,0002.77
2023-11-13 10:27:00,SystemResetWarning,0836.3,5.00,000.00,023.7,022.6,000.0,032.1,025.1,9.2,0000.0,0003.48,0009.56,0002.75
2023-11-13 10:28:00,SystemResetWarning,0836.2,5.00,000.00,023.7,022.6,000.0,032.1,025.1,9.3,0000.0,0003.47,0009.53,0002.72
2023-11-13 10:29:00,SystemResetWarning,0836.2,5.00,000.00,023.7,022.6,000.0,032.1,025.1,9.3,0000.0,0003.44,0009.70,0002.70
2023-11-13 10:30:00,SystemResetWarning,0836.2,5.00,000.00,023.7,022.6,000.0,032.1,025.0,9.3,0000.0,0003.41,0008.68,0002.67
2023-11-13 10:31:00,SystemResetWarning,0836.3,5.00,000.00,023.7,022.6,000.0,032.1,025.1,9.3,0000.0,0003.43,0008.35,0002.67
2023-11-13 10:32:00,SystemResetWarning,0836.2,5.00,000.00,023.7,022.6,000.0,032.1,025.1,9.3,0000.0,0003.47,0008.98,0002.67
2023-11-13 10:33:00,SystemResetWarning,0836.2,5.00,000.00,023.7,022.6,000.0,032.1,025.1,9.3,0000.0,0003.50,0009.77,0002.70
2023-11-13 10:34:00,SystemResetWarning,0836.2,5.00,000.00,023.7,022.6,000.0,032.1,025.1,9.3,0000.0,0003.52,0010.37,0002.74
2023-11-13 10:35:00,SystemResetWarning,0836.2,5.00,000.00,023.7,022.5,000.0,032.1,025.1,9.3,0000.0,0003.54,0010.39,0002.79
2023-11-13 10:36:00,SystemResetWarning,0836.2,5.00,000.00,023.7,022.5,000.0,032.1,025.1,9.3,0000.0,0003.59,0011.38,0002.83
2023-11-13 10:37:00,SystemResetWarning,0836.2,5.00,000.00,023.7,022.5,000.0,032.1,025.0,9.3,0000.0,0003.63,0011.33,0002.89
2023-11-13 10:38:00,SystemResetWarning,0836.2,5.01,000.00,023.7,022.5,000.0,032.1,025.0,9.2,0000.0,0003.67,0011.36,0002.92
2023-11-13 10:39:00,SystemResetWarning,0836.2,5.00,000.00,023.7,022.5,000.0,032.1,025.0,9.2,0000.0,0003.72,0011.36,0002.96
2023-11-13 10:40:00,SystemResetWarning,0836.2,5.00,000.00,023.6,022.5,000.0,032.1,025.0,9.2,0000.0,0003.74,0010.95,0002.98
2023-11-13 10:41:00,SystemResetWarning,0836.2,5.01,000.00,023.6,022.5,000.0,032.1,025.0,9.3,0000.0,0003.75,0010.88,0003.01
2023-11-13 10:42:00,SystemResetWarning,0836.2,5.00,000.00,023.6,022.5,000.0,032.0,024.9,9.2,0000.0,0003.73,0011.44,0003.01
2023-11-13 10:43:00,SystemResetWarning,0836.2,5.00,000.00,023.6,022.4,000.0,032.0,025.0,9.2,0000.0,0003.71,0011.08,0003.00
2023-11-13 10:44:00,SystemResetWarning,0836.2,5.00,000.00,023.6,022.5,000.0,032.0,025.0,9.2,0000.0,0003.65,0010.32,0002.97
2023-11-13 10:45:00,SystemResetWarning,0836.2,5.00,000.00,023.6,022.5,000.0,032.0,025.0,9.2,0000.0,0003.61,0009.00,0002.94
2023-11-13 10:46:00,SystemResetWarning,0836.2,5.00,000.00,023.6,022.5,000.0,032.0,025.0,9.2,0000.0,0003.58,0008.81,0002.92
2023-11-13 10:47:00,SystemResetWarning,0836.1,5.00,000.00,023.6,022.5,000.0,032.0,025.0,9.2,0000.0,0003.57,0007.94,0002.89
2023-11-13 10:48:00,SystemResetWarning,0836.1,5.00,000.00,023.6,022.4,000.0,032.0,025.0,9.2,0000.0,0003.54,0007.67,0002.84
2023-11-13 10:49:00,SystemResetWarning,0836.1,5.00,000.00,023.6,022.5,000.0,032.0,025.0,9.2,0000.0,0003.51,0007.60,0002.82
2023-11-13 10:50:00,SystemResetWarning,0836.0,5.00,000.00,023.6,022.5,000.0,032.0,025.0,9.2,0000.0,0003.50,0007.56,0002.80
2023-11-13 10:51:00,SystemResetWarning,0836.1,5.00,000.00,023.6,022.5,000.0,032.0,025.0,9.2,0000.0,0003.45,0007.51,0002.77
2023-11-13 10:52:00,SystemResetWarning,0836.1,5.00,000.00,023.6,022.5,000.0,032.0,025.0,9.2,0000.0,0003.46,0007.71,0002.74
2023-11-13 10:53:00,SystemResetWarning,0836.1,5.00,000.00,023.6,022.5,000.0,032.0,025.0,9.2,0000.0,0003.44,0007.44,0002.72
2023-11-13 10:54:00,SystemResetWarning,0836.1,5.00,000.00,023.6,022.5,000.0,032.0,025.0,9.2,0000.0,0003.42,0007.42,0002.69
2023-11-13 10:55:00,SystemResetWarning,0836.1,5.00,000.00,023.6,022.4,000.0,032.0,025.0,9.2,0000.0,0003.43,0007.35,0002.66
2023-11-13 10:56:00,SystemResetWarning,0836.1,5.00,000.00,023.6,022.4,000.0,032.0,024.9,9.2,0000.0,0003.40,0007.82,0002.62
2023-11-13 10:57:00,SystemResetWarning,0836.2,5.00,000.00,023.5,022.4,000.0,032.0,025.0,9.2,0000.0,0003.36,0008.54,0002.56
2023-11-13 10:58:00,SystemResetWarning,0836.2,5.00,000.00,023.6,022.4,000.0,032.0,025.0,9.2,0000.0,0003.31,0009.15,0002.51
2023-11-13 10:59:00,SystemResetWarning,0836.1,5.00,000.00,023.6,022.5,000.0,032.0,025.0,9.2,0000.0,0003.28,0009.23,0002.45
